STARLINK-1568 (46080 NORAD) Tracking and Keplerian Element Data

This shows tracking and keplerian element data for the satellite.

Feedback or suggestion? Click here.




ElementValue
Catalog46080
NameSTARLINK-1568
Epoch Orbit1864
Epoch Day335.73365771
Epoch Year2020
RAAN98.073
Inclination53.0044
Eccentricity0.0001369
Argument of Perigee74.8185
Mean Anonmoly285.2954
Mean Motion15.05576918
Decay Rate-8.54E-06
L11 46080U 20055BF 20335.73365771 -.00000854 00000-0 -39421-4 0 9994
L22 46080 53.0044 98.0730 0001369 74.8185 285.2954 15.05576918 18646

Live tracking and technical data element details for STARLINK-1568 (NORAD 46080). STARLINK-1568 can be tracked NOW for your location showing map with azimuth and elevation plus other details from your city location.

Track the satellite on the map from your city or location and see movement details for azimuth, elevation, latitude, longitude, range, height, and movement on the map or in text.







IsCatalogInMostPopularTable: catalog: 46080, numindb: 33
Update: records affected: 1



GetName: 46080 STARLINK-1568

Hit Count: updated at: Wed, 02 Dec 2020 05:30:48 GMT